Location: Unspecified
(0.0000°N, 0.0000°E)
Time: 14:45:37

Humanity Star - Pass Details

Date: 17 March 2018
Orbit: 254 x 331 km, 82.9° (Epoch: 17 March)

Event Time Altitude Azimuth Distance (km) Brightness Sun altitude
Rises 05:18:14 0° 24° (NNE) 2,053 8.9 -12.6°
Reaches altitude 10° 05:20:40 10° 50° (NE) 1,236 8.2 -11.9°
Maximum altitude 05:22:16 15° 87° (E) 1,014 8.4 -11.5°
Drops below altitude 10° 05:23:54 10° 124° (SE) 1,249 8.4 -11.1°
Sets 05:26:23 0° 150° (SSE) 2,089 9.1 -10.5°
